Vorticity
11 31 24 10 6 10 15 5 15 -23 3 5 6 13 -14 17 18 12 14 15 12 13 13 13 14 13 12 11 10 12 10 12 9 11 18 8 18 23 37 10 44 35 7 -32
27 7 10 5 16 14 9 3 2 7 -5 -4 20 -7 14 18 11 14 13 12 12 12 13 14 14 14 12 13 11 12 11 12 13 7 13 18 5 19 23 23 28 39 52 16
0 1 13 47 26 17 0 -2 -3 16 18 9 -11 14 14 17 12 8 10 12 12 11 12 12 12 14 12 14 12 11 12 12 13 11 8 8 19 10 19 22 13 26 38 9
2 23 18 -5 -0 3 -5 -7 15 28 7 -18 12 14 21 11 8 9 9 10 11 11 10 11 11 12 14 16 14 12 13 11 13 12 10 7 7 17 18 19 31 23 32 -7
7 -1 8 33 20 -4 -5 7 45 -9 -12 13 15 17 11 11 10 11 11 10 11 11 11 11 10 9 14 18 16 13 14 12 12 13 10 9 9 6 17 16 17 21 37 42
14 13 6 -5 1 -23 17 30 -4 -8 12 13 13 10 7 9 10 11 11 12 12 12 11 13 11 13 18 20 16 14 15 14 13 13 11 10 10 8 4 13 11 12 17 22
9 12 12 2 -6 4 27 -26 6 10 13 11 10 10 5 11 11 11 11 12 14 12 13 14 13 16 18 18 17 16 16 16 13 13 11 9 10 13 13 5 11 9 7 17
14 13 24 -35 15 3 10 14 9 12 11 9 9 9 13 12 11 10 11 14 13 14 13 12 17 20 19 18 19 18 17 17 14 14 13 9 8 8 14 15 8 7 5 11
9 -18 13 10 2 17 8 9 10 11 14 8 10 12 12 9 10 11 11 13 14 12 12 12 19 19 18 18 17 19 17 16 15 16 15 12 9 8 8 14 18 12 5 7
9 2 17 10 8 9 11 11 12 11 10 11 10 12 9 9 11 13 11 14 12 12 12 12 16 18 15 15 15 15 16 16 15 14 15 14 11 9 10 9 14 16 12 7
-2 14 16 2 10 11 12 11 11 10 11 10 12 10 9 10 12 12 12 12 11 11 11 12 16 18 15 14 16 17 14 14 15 14 14 13 12 10 10 10 9 15 17 11
8 14 13 10 10 11 9 12 8 8 11 11 9 10 9 11 13 12 10 13 12 11 12 14 18 19 17 16 15 15 16 15 16 15 15 15 12 12 9 11 13 11 15 16
13 14 13 10 11 8 10 13 7 9 8 10 10 11 9 10 12 12 10 12 12 11 13 14 19 21 17 13 13 15 17 19 17 17 20 16 15 14 13 13 12 14 13 14
13 12 14 12 12 10 14 13 8 8 10 11 10 11 8 11 13 14 10 10 12 12 14 12 17 20 15 10 16 16 20 23 23 21 21 22 20 20 18 17 15 17 16 12
12 11 10 11 11 8 12 12 8 9 10 14 11 9 8 11 12 13 13 8 13 13 15 13 13 18 16 18 11 12 18 20 19 22 19 20 22 22 22 22 19 17 17 17
13 12 11 11 11 7 11 14 10 10 10 12 10 9 8 10 11 14 14 11 9 12 14 13 12 9 17 24 13 11 13 16 14 16 14 13 12 11 12 13 14 14 15 15
16 14 14 13 13 9 11 13 13 9 9 11 9 9 7 10 12 16 13 15 10 10 13 14 17 7 11 20 15 18 10 8 8 11 12 12 10 10 9 9 9 10 11 12
16 14 13 13 14 11 11 12 14 12 8 12 10 8 7 9 10 12 12 13 15 13 13 12 16 13 11 8 11 20 18 15 12 10 9 10 12 13 12 13 13 13 14 14
16 15 12 13 12 12 9 11 12 14 9 10 11 8 6 7 12 10 11 11 13 12 9 7 12 12 15 13 9 11 19 17 14 14 14 13 12 12 12 13 13 13 14 14
13 17 13 12 12 13 11 10 11 13 12 9 12 10 6 6 11 11 12 12 10 10 10 7 13 9 10 11 16 15 9 14 16 16 15 14 13 13 13 13 12 13 13 14
9 15 15 12 11 12 13 11 11 14 13 10 14 11 7 5 6 11 12 14 13 13 12 9 15 11 13 11 12 16 18 15 10 12 13 12 11 10 10 10 10 12 13 14
8 10 16 14 12 12 13 13 12 14 14 12 10 9 12 8 8 6 7 10 13 14 11 11 12 11 11 14 13 13 13 17 19 17 14 11 10 9 8 8 8 8 9 10
8 8 10 16 13 11 13 14 12 12 15 16 11 12 9 8 6 7 8 8 9 12 14 12 11 11 10 13 12 12 11 14 16 15 16 17 18 17 16 15 14 12 11 10
8 7 7 10 15 12 11 11 12 12 14 15 14 14 13 9 5 5 5 6 7 7 9 14 14 12 11 12 11 11 11 11 10 10 11 12 15 17 18 17 18 18 19 19
8 7 7 8 11 13 11 12 12 10 11 14 14 10 12 12 11 9 7 6 6 7 7 9 10 15 14 12 12 11 10 11 10 10 11 11 13 15 15 13 11 12 13 15
12 9 7 8 8 13 13 12 12 12 11 12 14 15 9 12 13 10 8 6 6 5 6 7 9 9 10 15 14 12 11 11 11 11 10 11 12 11 10 12 13 16 16 15
13 12 10 8 8 9 12 13 12 12 11 11 13 15 15 10 12 14 11 8 6 6 6 6 7 7 9 9 9 13 14 13 12 11 11 11 11 11 14 13 11 11 10 11
Height
3054 3050 3046 3044 3042 3040 3039 3038 3035 3029 3023 3018 3011 3005 2999 2993 2985 2979 2973 2967 2960 2953 2948 2943 2939 2934 2929 2925 2920 2916 2913 2909 2906 2904 2903 2900 2899 2898 2897 2900 2901 2905 2911 2914
3047 3046 3044 3041 3038 3037 3036 3035 3030 3025 3018 3013 3009 3003 2996 2988 2980 2974 2967 2961 2955 2949 2943 2938 2933 2928 2924 2919 2914 2912 2908 2904 2902 2898 2897 2894 2894 2894 2893 2893 2893 2897 2903 2907
3046 3044 3041 3038 3036 3035 3034 3032 3027 3019 3015 3008 3003 2997 2990 2982 2976 2969 2963 2957 2950 2944 2938 2932 2926 2922 2918 2912 2908 2905 2903 2900 2897 2894 2891 2889 2888 2889 2888 2885 2888 2891 2892 2899
3046 3044 3043 3036 3034 3033 3031 3027 3021 3016 3012 3007 3000 2993 2988 2981 2973 2966 2960 2953 2947 2940 2934 2928 2922 2917 2913 2908 2903 2900 2898 2895 2892 2890 2889 2887 2884 2884 2885 2884 2883 2887 2891 2892
3047 3044 3040 3033 3033 3032 3027 3021 3016 3014 3009 3002 2994 2987 2985 2978 2972 2964 2957 2950 2942 2936 2929 2922 2917 2911 2907 2903 2897 2894 2892 2890 2887 2885 2885 2884 2884 2881 2882 2882 2881 2883 2886 2889
3046 3044 3039 3034 3033 3031 3025 3018 3014 3011 3004 2995 2988 2979 2976 2972 2966 2959 2953 2946 2938 2932 2925 2919 2912 2906 2900 2896 2892 2888 2886 2885 2883 2881 2881 2881 2881 2881 2879 2879 2880 2880 2883 2885
3044 3042 3036 3033 3031 3028 3025 3023 3014 3008 3001 2994 2988 2983 2973 2968 2962 2957 2949 2942 2935 2929 2922 2914 2907 2900 2895 2891 2887 2883 2880 2879 2879 2877 2877 2877 2878 2880 2880 2879 2878 2879 2880 2884
3042 3040 3036 3032 3030 3028 3023 3016 3010 3004 2998 2992 2986 2980 2973 2966 2959 2952 2945 2938 2932 2925 2918 2911 2903 2896 2890 2886 2882 2878 2876 2874 2874 2873 2873 2873 2875 2876 2878 2879 2880 2880 2882 2885
3043 3039 3034 3029 3025 3020 3016 3011 3006 3000 2995 2988 2982 2976 2970 2963 2956 2950 2942 2935 2928 2921 2914 2908 2901 2893 2887 2883 2879 2876 2873 2872 2870 2870 2870 2870 2871 2872 2874 2877 2880 2882 2883 2885
3038 3035 3029 3025 3020 3017 3012 3008 3002 2997 2991 2985 2979 2973 2967 2961 2954 2947 2940 2932 2925 2918 2912 2904 2897 2891 2885 2881 2877 2873 2871 2870 2868 2867 2868 2868 2869 2870 2873 2875 2878 2880 2882 2885
3033 3029 3025 3021 3017 3012 3010 3004 2999 2995 2989 2983 2977 2971 2965 2959 2952 2945 2938 2931 2924 2916 2909 2902 2896 2890 2884 2879 2875 2871 2868 2867 2866 2865 2865 2867 2868 2869 2870 2872 2875 2877 2880 2883
3029 3024 3021 3018 3013 3009 3005 3000 2996 2990 2987 2982 2975 2970 2964 2958 2951 2944 2936 2930 2923 2916 2909 2902 2895 2889 2883 2878 2873 2869 2867 2864 2862 2862 2862 2863 2864 2864 2866 2870 2873 2874 2877 2879
3025 3021 3017 3013 3010 3006 3002 2998 2994 2990 2984 2979 2975 2969 2964 2957 2950 2943 2937 2930 2923 2916 2909 2902 2895 2888 2883 2879 2874 2870 2866 2863 2860 2859 2859 2859 2860 2862 2862 2865 2867 2870 2873 2876
3020 3017 3015 3011 3007 3004 3000 2996 2993 2988 2983 2978 2974 2968 2962 2956 2950 2943 2936 2930 2924 2917 2911 2904 2897 2889 2883 2879 2876 2871 2867 2863 2861 2859 2857 2857 2857 2858 2860 2861 2863 2865 2868 2869
3017 3014 3011 3008 3004 3001 2997 2993 2990 2986 2982 2978 2973 2967 2961 2955 2949 2942 2937 2931 2925 2919 2913 2906 2899 2891 2885 2880 2876 2871 2867 2864 2862 2860 2857 2857 2858 2858 2859 2860 2861 2863 2865 2867
3015 3012 3008 3005 3002 2998 2994 2991 2988 2985 2981 2976 2971 2967 2961 2955 2949 2943 2937 2931 2925 2918 2913 2906 2901 2894 2889 2884 2879 2875 2870 2866 2863 2861 2861 2861 2861 2861 2862 2861 2862 2864 2865 2867
3013 3011 3007 3003 3000 2996 2993 2989 2985 2982 2978 2974 2970 2966 2961 2956 2951 2945 2939 2933 2927 2922 2915 2909 2904 2897 2893 2887 2882 2879 2876 2873 2870 2869 2868 2867 2866 2865 2864 2864 2865 2866 2866 2866
3011 3007 3004 3001 2998 2995 2991 2987 2984 2981 2977 2973 2969 2965 2962 2957 2950 2945 2940 2935 2931 2926 2920 2913 2907 2901 2896 2891 2886 2883 2879 2877 2874 2872 2870 2869 2868 2867 2865 2866 2865 2865 2865 2866
3009 3005 3002 2999 2995 2992 2989 2986 2982 2979 2976 2973 2970 2966 2962 2957 2952 2946 2941 2937 2932 2926 2921 2914 2910 2905 2900 2895 2891 2887 2883 2880 2878 2876 2874 2873 2871 2870 2869 2868 2867 2867 2868 2867
3008 3004 3001 2997 2994 2991 2988 2985 2981 2978 2975 2972 2969 2966 2963 2959 2955 2949 2944 2938 2933 2927 2922 2917 2914 2908 2903 2899 2895 2891 2888 2884 2881 2879 2877 2876 2875 2874 2873 2872 2871 2870 2870 2869
3007 3003 2999 2996 2992 2989 2986 2984 2980 2977 2974 2972 2969 2966 2963 2959 2954 2951 2947 2942 2936 2931 2926 2921 2917 2910 2906 2902 2899 2895 2891 2888 2886 2883 2881 2879 2877 2876 2875 2874 2873 2873 2872 2870
3006 3002 2998 2994 2991 2988 2985 2982 2980 2976 2973 2970 2968 2965 2963 2960 2957 2952 2947 2943 2938 2933 2928 2924 2919 2914 2910 2907 2903 2899 2895 2891 2888 2886 2884 2881 2880 2878 2877 2876 2874 2872 2871 2870
3004 3001 2997 2994 2990 2987 2984 2981 2978 2975 2972 2970 2967 2965 2962 2960 2957 2954 2951 2946 2940 2936 2931 2927 2922 2918 2914 2911 2907 2903 2899 2895 2892 2889 2886 2884 2881 2879 2877 2876 2874 2873 2871 2870
3002 2999 2996 2992 2989 2986 2983 2979 2977 2974 2971 2968 2966 2964 2962 2959 2956 2954 2950 2946 2943 2939 2934 2930 2925 2922 2918 2914 2910 2907 2903 2900 2896 2893 2890 2887 2884 2881 2879 2876 2874 2873 2871 2869
3000 2997 2995 2991 2988 2985 2981 2978 2976 2973 2970 2967 2965 2962 2960 2958 2956 2954 2952 2949 2945 2942 2938 2933 2929 2925 2921 2917 2913 2909 2906 2903 2899 2896 2893 2890 2888 2884 2882 2879 2876 2874 2872 2870
2997 2995 2992 2990 2987 2984 2981 2978 2975 2972 2969 2966 2964 2961 2959 2957 2955 2953 2951 2949 2946 2943 2940 2936 2933 2928 2924 2920 2916 2912 2909 2906 2903 2899 2896 2893 2890 2888 2884 2881 2878 2876 2873 2871
2993 2991 2990 2987 2985 2982 2979 2976 2974 2971 2968 2966 2963 2960 2958 2956 2954 2952 2950 2948 2946 2944 2941 2938 2935 2931 2927 2924 2920 2916 2912 2908 2905 2902 2899 2896 2893 2890 2887 2884 2881 2878 2875 2872